Hourly Data Report for July 23, 2021

CAMPBELL RIVER A
BRITISH COLUMBIA
Current Station Operator: NAVCAN

49°57'07.000" N
125°16'23.000" W
108.80 m
1021270
YBL

Download Data

Hourly Data (July 2021)
Hourly Data Report for July 23, 2021
TIME
LST
Temp Definition
°C
Dew Point Definition
°C
Rel Hum Definition
%
Precip. Amount Definition
mm

Wind Dir Definition
10's deg

Wind Spd Definition
km/h
Visibility Definition
km
Stn Press Definition
kPa
Hmdx Definition


Wind Chill Definition


Weather Definition


00:00 15.0 12.2 84 LegendMM 28 7 LegendMM 100.79     LegendNANA
01:00 14.6 12.4 86 LegendMM 31 6 LegendMM 100.78     LegendNANA
02:00 14.7 12.2 85 LegendMM 29 8 LegendMM 100.79     LegendNANA
03:00 14.0 12.2 89 LegendMM 24 5 LegendMM 100.81     LegendNANA
04:00 13.6 12.5 93 LegendMM 31 4 LegendMM 100.85     LegendNANA
05:00 13.5 12.4 93 LegendMM 30 2 LegendMM 100.89     LegendNANA
06:00 14.3 12.8 90 LegendMM 33 2 LegendMM 100.92     LegendNANA
07:00 15.9 11.8 77 LegendMM 35 4 LegendMM 100.99     LegendNANA
08:00 17.3 11.3 68 LegendMM 11 7 LegendMM 101.00     LegendNANA
09:00 19.2 11.3 60 LegendMM 1 5 LegendMM 101.07     LegendNANA
10:00 19.4 11.3 59 LegendMM 11 13 LegendMM 101.10     LegendNANA
11:00 20.2 12.1 59 LegendMM 11 16 LegendMM 101.14     LegendNANA
12:00 21.5 12.3 55 LegendMM 13 21 LegendMM 101.15     LegendNANA
13:00 22.2 12.8 55 LegendMM 11 21 LegendMM 101.14 25   LegendNANA
14:00 21.2 13.0 59 LegendMM 10 19 LegendMM 101.14     LegendNANA
15:00 20.6 12.7 60 LegendMM 12 16 LegendMM 101.18     LegendNANA
16:00 20.4 12.2 59 LegendMM 9 7 LegendMM 101.12     LegendNANA
17:00 20.6 12.5 59 LegendMM 10 7 LegendMM 101.08     LegendNANA
18:00 20.7 12.5 59 LegendMM 13 7 LegendMM 101.04     LegendNANA
19:00 20.6 12.9 61 LegendMM 36 5 LegendMM 101.02     LegendNANA
20:00 19.1 13.9 72 LegendMM 31 5 LegendMM 101.01     LegendNANA
21:00 17.6 14.3 81 LegendMM 31 4 LegendMM 101.01     LegendNANA
22:00 16.5 14.3 86 LegendMM 25 3 LegendMM 100.98     LegendNANA
23:00 16.6 14.3 86 LegendMM 30 4 LegendMM 100.99     LegendNANA

Notes on Data Quality.

Legend

  • E = Estimated
  • M = Missing
  • NA = Not Available*
  • [empty] = Indicates an unobserved value
Date modified: